Location: Dittelspoint
(48.7198°N, 10.7214°E)
Time: 11:12:30
(UTC+00:00)

RESURS DK-1 - Pass Details

Date: 09 April 2020
Orbit: 557 x 561 km, 69.9° (Epoch: 25 May)

Event Time Altitude Azimuth Distance (km) Brightness Sun altitude
Rises 20:44:13 0° 328° (NNW) 2,762 7.3 -24.0°
Reaches altitude 10° 20:46:27 10° 325° (NW) 1,861 6.1 -24.2°
Enters shadow 20:50:15 62° 271° (W) 636 2.7 -24.6°
